OBJECT R, 66681

Orbit data source: Space-Track

You're viewing an uncataloged RSO

Recently launched and/or uncataloged RSOs may have evolving metadata. Metadata may include the following, but is not limited to: Owner, Manufacturer, Bus, Motor, and Mission.

OBJECT R, 66681 is a satellite in SSO that was launched on Fri, 28 Nov 2025 UTC via an FALCON 9 launch vehicle from the Air Force Western Test Range (AFWTR). Unknown objects in Earth's orbit typically refer to objects detected orbiting the Earth but have not yet been identified or cataloged. These objects could be anything from previously untracked satellites, spent rocket stages, debris from satellite collisions, or even natural meteoroids temporarily captured by Earth's gravity.

Loading next visibility...
Identifier
66681, 2025-276R
Orbit
SSO
Country
Flag of TBDTBD
Related business
None
Manufacturer
Unknown
Mission
Operational Commercial Communications
Bus & Motor
Unknown
Mass
Unknown
Launch date (UTC)
2025-11-28 (9 months ago)
Launch vehicle
FALCON 9
Launch site
Air Force Western Test Range (AFWTR)
Object type
Unknown
Shape & HBR
Box, 0.2 m
Radar Cross Section
0.100 m², Medium (>0.1 m² and < 1m²)

Expand to show TLE details & history
Last TLE update: 7 hours ago

TLE from 7 hours ago
0 OBJECT R
1 66681U 25276R   26238.61937793  .00016202  00000-0  63222-3 0  9994
2 66681  97.4071 311.8210 0006437 122.5989 237.5871 15.25979194 41199
Epoch: 2026-08-26T14:51Z
TLE epoch observation values (Epoch: 2026-08-26T14:51:54.253Z)
Latitude
-0.00006°
Longitude
113.97518°
Altitude
493.317 km
Speed
7.617 km/s
True Right ascension
20h 47m 17s
True Declination
0° 00' 00"
Sunlit
Object was in full shadow at epoch
Visualization orbit readout
Latitude
Unknown
Longitude
Unknown
Altitude
Unknown
Speed
Unknown
Apparent Right ascension
Unknown
Apparent Declination
Unknown
Sunlit
N/A
Visualization observer readout
Local Sidereal Time
13:31:16
Azimuth
Unknown
Elevation
Unknown
Doppler factor
Unknown
Orbital elements
Apogee altitude
489.222 km
Perigee altitude
480.387 km
Semi-major axis
6,862.942 km
Eccentricity
0.00064
Inclination
97.4071°
RAAN
311.821°
Arg. of periapsis
122.5989°
True anomaly
237.52486°
Mean anomaly
237.5871°
Eccentric anomaly
237.55598°
Mean motion
3.81749 °/min
Orbital period
94.3 mins
BSTAR
0.00063222
Loading maneuver chart data...
Computing Atmospheric mass density...
Loading historical data...
Loading historical data...
Loading historical data...
Loading historical data...
Loading historical data...
Loading historical data...
Loading historical data...

Documentation

Showing up to 5 results
|